[[{"header":{"parameterUnit":"m.s-1","parameterCategory":1,"la1":30.2991,"la2":30.254,"lo1":-89.0895,"lo2":-89.0444,"dx":0.0017,"dy":0.0017,"nx":28,"ny":28,"refTime":"2022-12-02T09:00:00:Z","depth":0,"parameterNumber":2,"parameterNumberName":"U-component_of_WINDS"},"data":[0,0,0,0,0,0,0,0,0,0,0,0,0,0,0,0,0,0,0,0,0,0,0,0,0,0,0,0,0,0,0,0,0,0,0,0,0,0,0,0,0,0,0,0,0,0,0,0,0,0,0,0,0,0,0,0,0,0,-4.308,-4.308,0,-4.3119,-4.312,-4.312,-4.309,-4.3089,-4.3087,-4.3086,-4.3122,-4.3125,-4.3127,0,0,0,0,0,0,0,0,0,0,0,0,0,-4.2975,-4.2977,-4.308,-4.308,-4.3081,-4.3119,-4.312,-4.312,-4.309,-4.3089,-4.3087,-4.3086,-4.3122,-4.3124,-4.3127,0,0,0,0,0,0,0,0,0,0,0,0,0,-4.3018,-4.2978,-4.308,-4.3071,-4.307,-4.3119,-4.312,-4.312,-4.3091,-4.3089,-4.3087,-4.3085,-4.3121,-4.3124,-4.3127,-4.3186,0,0,-4.3137,-4.3139,0,0,0,0,0,0,0,0,-4.3016,-4.3022,-4.3071,-4.3071,-4.3071,-4.3098,-4.3096,-4.3142,-4.3091,-4.3083,-4.3086,-4.3084,-4.3116,-4.3119,-4.3131,-4.3188,-4.3189,-4.3137,-4.3139,-4.3141,-4.3142,0,0,0,0,0,0,0,-4.3013,-4.302,-4.3095,-4.3072,-4.3072,-4.3063,-4.3067,-4.3105,-4.3109,-4.3083,-4.3081,-4.3086,-4.3115,-4.3128,-4.3131,-4.319,-4.3137,-4.314,-4.3142,-4.3144,-4.3297,-4.3299,0,0,0,0,0,0,-4.3011,-4.3018,-4.3094,-4.3096,-4.3038,-4.3067,-4.3071,-4.3091,-4.3109,-4.311,-4.3088,-4.3085,-4.3123,-4.3127,-4.3132,-4.3202,-4.3141,-4.3144,-4.3146,-4.3295,-4.3298,-4.33,0,0,0,0,0,0,-4.3009,-4.3018,-4.3092,-4.3057,-4.3065,-4.3071,-4.3093,-4.3093,-4.3105,-4.3113,-4.3113,-4.31,-4.3122,-4.3128,-4.3173,-4.3203,-4.3145,-4.3148,-4.3293,-4.3296,-4.3299,-4.3341,0,0,0,0,0,0,-4.3006,-4.3018,-4.3041,-4.3057,-4.3068,-4.3134,-4.3095,-4.3095,-4.3112,-4.3108,-4.3124,-4.3125,-4.3121,-4.3169,-4.3177,-4.3206,-4.3151,-4.329,-4.3294,-4.3298,-4.3337,-4.3346,-4.3353,0,0,0,0,0,-4.3002,-4.305,-4.3042,-4.3051,-4.3097,-4.3135,-4.3141,-4.3136,-4.3114,-4.3137,-4.3142,-4.3124,-4.3199,-4.3173,-4.3182,-4.3213,-4.3288,-4.3293,-4.3298,-4.3334,-4.3344,-4.3353,0,0,0,0,0,0,-4.3034,-4.3052,-4.3043,-4.3098,-4.3116,-4.313,-4.3158,-4.3147,-4.317,-4.3165,-4.3158,-4.3161,-4.3209,-4.3216,-4.3187,-4.3271,-4.324,-4.3247,-4.3264,-4.3274,-4.3282,-4.3278,-4.3154,0,0,0,0,0,-4.3049,-4.308,-4.3093,-4.314,-4.315,-4.3153,-4.3169,-4.3165,-4.3182,-4.3189,-4.3197,-4.3213,-4.324,-4.3258,-4.3283,-4.3339,-4.3342,-4.3365,-4.3373,-4.3379,-4.3384,-4.3413,-4.3424,-4.3316,-4.3316,-4.3316,0,0,-4.3076,-4.309,-4.311,-4.3147,-4.316,-4.3191,-4.3159,-4.3193,-4.3216,-4.3193,-4.3237,-4.3244,-4.3261,-4.3312,-4.3335,-4.332,-4.3415,-4.3385,-4.339,-4.3392,-4.3419,-4.343,-4.3439,-4.3319,-4.3319,-4.3318,0,0,-4.3143,-4.3157,-4.3198,-4.3212,-4.3233,-4.3235,-4.3245,-4.3262,-4.3266,-4.3311,-4.3294,-4.3321,-4.3368,-4.3381,-4.3394,-4.3469,-4.3453,-4.3477,-4.3516,-4.3545,-4.3553,-4.3561,-4.3586,-4.3595,-4.3483,-4.3483,-4.3483,0,-4.3174,-4.3222,-4.3219,-4.3256,-4.3272,-4.3255,-4.3296,-4.3309,-4.3337,-4.3348,-4.3331,-4.339,-4.3401,-4.3455,-4.3473,-4.3485,-4.3494,-4.3474,-4.3553,-4.356,-4.3567,-4.3591,-4.36,-4.3485,-4.3485,-4.3485,-4.3485,0,-4.3259,-4.3293,-4.3323,-4.3352,-4.3372,-4.341,-4.3412,-4.3432,-4.3427,-4.3431,-4.3475,-4.3489,-4.3516,-4.3529,-4.3523,-4.3582,-4.3571,-4.3554,-4.3522,-4.358,-4.3602,-4.3611,-4.3489,-4.3488,-4.3488,-4.3487,0,0,-4.3343,-4.3373,-4.3384,-4.3397,-4.342,-4.3445,-4.3483,-4.3511,-4.3528,-4.3549,-4.3579,-4.362,-4.3605,-4.3619,-4.3615,-4.3641,-4.3697,-4.362,-4.362,-4.3632,-4.3761,-4.3773,-4.3783,-4.3689,-4.369,-4.3692,-4.3759,0,-4.341,-4.3476,-4.3476,-4.3536,-4.3567,-4.3553,-4.3585,-4.3602,-4.3608,-4.3633,-4.3639,-4.3668,-4.3646,-4.3654,-4.368,-4.3685,-4.3723,-4.3681,-4.3714,-4.3716,-4.3708,-4.3795,-4.3807,-4.3869,-4.3768,-4.3769,-4.377,0,-4.3495,-4.352,-4.3584,-4.3604,-4.3617,-4.3646,-4.3672,-4.3698,-4.3717,-4.3719,-4.3737,-4.3729,-4.3766,-4.3736,-4.3786,-4.3757,-4.3772,-4.3777,-4.3779,-4.378,-4.3744,-4.3796,-4.3889,-4.3898,-4.3784,-4.3783,-4.3782,0,-4.3548,-4.3598,-4.3643,-4.3655,-4.3679,-4.37,-4.3711,-4.3728,-4.3746,-4.3769,-4.378,-4.3807,-4.3821,-4.3842,-4.3841,-4.3819,-4.3892,-4.3861,-4.3893,-4.3893,-4.3906,-4.3904,-4.4001,-4.392,-4.3919,-4.3919,-4.3919,0,-4.362,-4.366,-4.3667,-4.3694,-4.3738,-4.3737,-4.378,-4.3789,-4.3805,-4.3833,-4.3823,-4.3849,-4.3848,-4.3874,-4.3875,-4.3915,-4.3922,-4.3924,-4.3923,-4.3923,-4.3923,-4.393,-4.3925,-4.3922,-4.3921,-4.3921,-4.392,0,-4.3685,-4.3692,-4.374,-4.376,-4.3766,-4.3797,-4.3814,-4.3839,-4.3845,-4.388,-4.3888,-4.3897,-4.3927,-4.393,-4.3965,-4.3965,-4.4014,-4.4009,-4.4007,-4.4006,-4.4036,-4.4032,-4.4139,-4.4152,-4.4064,-4.4065,-4.4066,0,-4.373,-4.376,-4.3784,-4.3803,-4.3816,-4.3846,-4.3864,-4.3866,-4.3885,-4.3911,-4.3933,-4.3963,-4.3987,-4.4036,-4.4044,-4.4071,-4.4066,-4.4101,-4.4069,-4.4069,-4.4064,-4.4061,-4.4063,-4.4106,-4.4107,-4.4108,-4.4109,0,-4.3807,-4.381,-4.3837,-4.3867,-4.389,-4.3913,-4.3934,-4.3949,-4.3953,-4.3976,-4.4008,-4.4027,-4.4064,-4.4093,-4.412,-4.413,-4.4119,-4.4119,-4.4128,-4.4127,-4.4124,-4.4124,-4.4022,-4.4116,-4.4115,-4.4115,-4.4114,-4.4114,-4.3862,-4.3888,-4.3909,-4.3941,-4.3958,-4.3978,-4.4003,-4.4013,-4.404,-4.4071,-4.4071,-4.4106,-4.4125,-4.416,-4.4172,-4.4199,-4.4187,-4.4199,-4.4202,-4.4204,-4.4207,-4.4122,-4.4204,-4.4204,-4.4204,-4.4204,-4.4203,0,-4.3937,-4.3951,-4.398,-4.4011,-4.4036,-4.4027,-4.4051,-4.4071,-4.4103,-4.4122,-4.4147,-4.4184,-4.4213,-4.4225,-4.4253,-4.4272,-4.4268,-4.4279,-4.4276,-4.4278,-4.4217,-4.4206,-4.4282,-4.4282,-4.4282,-4.4282,-4.4282,-4.4282,-4.3978,-4.4022,-4.4027,-4.4079,-4.4092,-4.4128,-4.4142,-4.4161,-4.4176,-4.4219,-4.4243,-4.4252,-4.4268,-4.4298,-4.4324,-4.4326,-4.4336,-4.4349,-4.4349,-4.4291,-4.4283,-4.4275,-4.4265,-4.4352,-4.4352,-4.4408,-4.4409,-4.4409]},{"header":{"parameterUnit":"m.s-1","parameterCategory":1,"la1":30.2991,"la2":30.254,"lo1":-89.0895,"lo2":-89.0444,"dx":0.0017,"dy":0.0017,"nx":28,"ny":28,"refTime":"2022-12-02T09:00:00:Z","depth":0,"parameterNumber":3,"parameterNumberName":"V-component_of_WINDS"},"data":[0,0,0,0,0,0,0,0,0,0,0,0,0,0,0,0,0,0,0,0,0,0,0,0,0,0,0,0,0,0,0,0,0,0,0,0,0,0,0,0,0,0,0,0,0,0,0,0,0,0,0,0,0,0,0,0,0,0,2.5808,2.5809,0,2.5837,2.5838,2.5838,2.5841,2.584,2.584,2.584,2.5867,2.5868,2.5869,0,0,0,0,0,0,0,0,0,0,0,0,0,2.5754,2.5755,2.5808,2.5809,2.5809,2.5837,2.5838,2.5838,2.5841,2.584,2.584,2.584,2.5866,2.5867,2.5869,0,0,0,0,0,0,0,0,0,0,0,0,0,2.578,2.5755,2.5808,2.5814,2.5815,2.5837,2.5838,2.5838,2.5841,2.584,2.584,2.584,2.5866,2.5867,2.5869,2.5887,0,0,2.5873,2.5874,0,0,0,0,0,0,0,0,2.5778,2.5782,2.5813,2.5813,2.5814,2.5835,2.5829,2.5854,2.5841,2.5831,2.584,2.5839,2.5856,2.5858,2.5865,2.5888,2.5889,2.5873,2.5874,2.5875,2.5875,0,0,0,0,0,0,0,2.5777,2.5781,2.582,2.5813,2.5814,2.5815,2.5818,2.5833,2.5846,2.5832,2.5832,2.5835,2.5857,2.5863,2.5865,2.589,2.5873,2.5875,2.5876,2.5876,2.5933,2.5933,0,0,0,0,0,0,2.5774,2.5779,2.5819,2.5821,2.5795,2.5816,2.582,2.5829,2.5845,2.5848,2.5836,2.5836,2.5861,2.5864,2.5866,2.5891,2.5875,2.5876,2.5877,2.5932,2.5933,2.5934,0,0,0,0,0,0,2.5773,2.5777,2.5818,2.58,2.5805,2.5817,2.5828,2.583,2.5836,2.5849,2.5851,2.5841,2.5861,2.5864,2.5883,2.5892,2.5877,2.5878,2.5931,2.5932,2.5933,2.5939,0,0,0,0,0,0,2.5771,2.5777,2.5784,2.58,2.5806,2.5834,2.5828,2.5831,2.5839,2.5839,2.5854,2.5856,2.5861,2.5881,2.5884,2.5894,2.588,2.5931,2.5932,2.5933,2.5938,2.594,2.5941,0,0,0,0,0,2.5769,2.5783,2.5784,2.5789,2.5815,2.5834,2.5837,2.5844,2.584,2.5847,2.5856,2.5855,2.589,2.5882,2.5887,2.5897,2.593,2.5932,2.5933,2.5937,2.5939,2.5941,0,0,0,0,0,0,2.5765,2.5785,2.5787,2.5806,2.5819,2.5834,2.5844,2.5846,2.5859,2.5858,2.5865,2.5868,2.5887,2.5893,2.5884,2.5917,2.591,2.5912,2.5912,2.5914,2.5916,2.5914,2.5881,0,0,0,0,0,2.5767,2.5781,2.5797,2.5813,2.582,2.5831,2.5839,2.5844,2.5856,2.5861,2.5871,2.5883,2.5897,2.5906,2.5919,2.5939,2.5943,2.5948,2.595,2.5951,2.5953,2.5967,2.597,2.5938,2.5938,2.5938,0,0,2.577,2.5782,2.5791,2.5813,2.5823,2.5838,2.5835,2.585,2.5861,2.5863,2.5882,2.589,2.5904,2.5924,2.5933,2.593,2.5963,2.5953,2.5954,2.5955,2.5969,2.5972,2.5975,2.5939,2.5939,2.5939,0,0,2.5783,2.5794,2.5809,2.5821,2.5837,2.5845,2.5849,2.5865,2.5871,2.5891,2.5893,2.5907,2.593,2.5941,2.5949,2.5971,2.5972,2.5975,2.5984,2.5998,2.6,2.6003,2.6012,2.6015,2.5977,2.5977,2.5977,0,2.5784,2.5808,2.5816,2.5833,2.5843,2.5848,2.5864,2.5874,2.5894,2.5901,2.5898,2.593,2.5939,2.5963,2.5969,2.5975,2.598,2.5973,2.5999,2.6002,2.6004,2.6013,2.6016,2.5977,2.5977,2.5977,2.5977,0,2.5809,2.5826,2.5836,2.5858,2.5869,2.5885,2.5897,2.5908,2.5912,2.592,2.5942,2.5954,2.5971,2.5977,2.598,2.6002,2.6,2.5998,2.5991,2.6007,2.6016,2.6019,2.5978,2.5978,2.5978,2.5977,0,0,2.5818,2.5848,2.5851,2.5863,2.5883,2.5896,2.5913,2.5932,2.5942,2.5956,2.5971,2.5993,2.5992,2.6001,2.6006,2.6018,2.6037,2.6015,2.6015,2.602,2.6065,2.6067,2.6071,2.6038,2.6039,2.6039,2.6064,0,2.5835,2.5867,2.5877,2.5904,2.592,2.5927,2.5942,2.5957,2.5966,2.5981,2.5991,2.6007,2.6004,2.601,2.6022,2.6032,2.6046,2.603,2.6053,2.6053,2.605,2.6075,2.6077,2.61,2.6068,2.6068,2.6069,0,2.5858,2.5875,2.5904,2.5926,2.5933,2.5947,2.5967,2.5981,2.5998,2.6005,2.6018,2.6022,2.6041,2.6034,2.6061,2.605,2.606,2.6067,2.6068,2.6071,2.6062,2.608,2.6107,2.6111,2.6074,2.6073,2.6073,0,2.5864,2.5894,2.5916,2.5926,2.5951,2.5961,2.5972,2.5989,2.6001,2.6018,2.6026,2.6044,2.6054,2.6069,2.6079,2.6072,2.6106,2.6099,2.6112,2.6112,2.6118,2.6118,2.6149,2.6123,2.6123,2.6123,2.6123,0,2.5881,2.5899,2.592,2.5933,2.5955,2.5967,2.5987,2.5998,2.6014,2.603,2.6036,2.6051,2.6064,2.608,2.6088,2.6111,2.6115,2.6121,2.6123,2.6121,2.612,2.6127,2.6126,2.6124,2.6124,2.6124,2.6124,0,2.589,2.5905,2.593,2.5954,2.596,2.5975,2.5995,2.6009,2.602,2.604,2.6046,2.6062,2.6083,2.6095,2.612,2.6125,2.6151,2.6151,2.6146,2.6147,2.616,2.6159,2.6197,2.6204,2.6173,2.6173,2.6173,0,2.5901,2.5915,2.5942,2.5954,2.5966,2.5985,2.5999,2.6012,2.6025,2.6048,2.606,2.6082,2.6099,2.6132,2.6146,2.6166,2.6168,2.618,2.6171,2.6169,2.617,2.6169,2.6172,2.6182,2.6182,2.6182,2.6182,0,2.5918,2.5926,2.5945,2.5969,2.5985,2.6003,2.6021,2.6031,2.6047,2.6062,2.6085,2.6099,2.6127,2.6149,2.6171,2.6181,2.6185,2.6186,2.619,2.6188,2.6185,2.6189,2.6151,2.6184,2.6184,2.6184,2.6184,2.6184,2.5929,2.5944,2.5966,2.5988,2.6004,2.6022,2.6037,2.6052,2.6071,2.6096,2.6103,2.6127,2.6147,2.6177,2.6189,2.6208,2.6206,2.6212,2.6213,2.6215,2.6216,2.6182,2.6212,2.6212,2.6212,2.6212,2.6212,0,2.5948,2.5964,2.5985,2.6012,2.603,2.6034,2.6055,2.607,2.6092,2.6111,2.613,2.6157,2.6179,2.6196,2.6219,2.6232,2.6234,2.6237,2.6237,2.624,2.6216,2.6211,2.6235,2.6235,2.6235,2.6235,2.6235,2.6235,2.596,2.5986,2.5997,2.6032,2.6047,2.6072,2.6085,2.6102,2.6117,2.6148,2.6168,2.618,2.6198,2.6223,2.6244,2.6249,2.6258,2.6261,2.6266,2.6243,2.6241,2.6238,2.6234,2.6262,2.6262,2.6288,2.6288,2.6288]}]]